[[{"header":{"parameterUnit":"m.s-1","parameterCategory":1,"la1":30.2991,"la2":30.254,"lo1":-89.0895,"lo2":-89.0444,"dy":0.0017,"dx":0.0017,"nx":28,"ny":28,"refTime":"2026-01-11T09:00:00:Z","depth":0,"parameterNumber":2,"parameterNumberName":"U-component_of_WINDS"},"data":[0,0,0,0,0,0,0,0,0,0,0,0,0,0,0,0,0,0,0,0,0,0,0,0,0,0,0,0,0,0,0,0,0,0,0,0,0,0,0,0,0,0,0,0,0,0,0,0,0,0,0,0,0,0,0,0,0,0,0.3075,0.3075,0,0.3087,0.3087,0.3087,0.3109,0.3109,0.311,0.311,0.3121,0.3121,0.3121,0,0,0,0,0,0,0,0,0,0,0,0,0,0.3069,0.3069,0.3075,0.3075,0.3075,0.3087,0.3087,0.3088,0.3109,0.3109,0.311,0.311,0.3121,0.3121,0.3121,0,0,0,0,0,0,0,0,0,0,0,0,0,0.3075,0.3069,0.3075,0.3087,0.3088,0.3087,0.3087,0.3088,0.3109,0.3109,0.311,0.3111,0.3121,0.3121,0.3121,0.3108,0,0,0.312,0.312,0,0,0,0,0,0,0,0,0.3075,0.3076,0.3085,0.3086,0.3088,0.3097,0.3089,0.3094,0.3109,0.3101,0.311,0.3111,0.3112,0.3113,0.3114,0.3108,0.3109,0.312,0.312,0.312,0.312,0,0,0,0,0,0,0,0.3075,0.3075,0.308,0.3085,0.3087,0.3092,0.3094,0.309,0.3103,0.3102,0.3103,0.3105,0.3113,0.3114,0.3114,0.3109,0.312,0.312,0.312,0.312,0.3094,0.3094,0,0,0,0,0,0,0.3072,0.3075,0.3079,0.308,0.3083,0.3092,0.3093,0.3094,0.3103,0.3105,0.3104,0.3106,0.3114,0.3115,0.3115,0.3101,0.312,0.312,0.312,0.3095,0.3094,0.3094,0,0,0,0,0,0,0.3072,0.3073,0.3079,0.3078,0.3079,0.3091,0.3091,0.3093,0.3094,0.3105,0.3107,0.3103,0.3115,0.3115,0.311,0.3101,0.312,0.312,0.3096,0.3095,0.3094,0.3072,0,0,0,0,0,0,0.3072,0.3072,0.3067,0.3078,0.3079,0.3073,0.3091,0.3093,0.3094,0.3096,0.3104,0.3106,0.3115,0.311,0.311,0.3102,0.312,0.3096,0.3095,0.3094,0.3073,0.307,0.3068,0,0,0,0,0,0.3072,0.306,0.3067,0.3067,0.3073,0.3073,0.3074,0.3085,0.3093,0.3089,0.3096,0.3106,0.3103,0.3109,0.3109,0.3101,0.3097,0.3096,0.3094,0.3075,0.3071,0.3068,0,0,0,0,0,0,0.3047,0.3061,0.3069,0.3061,0.3066,0.3076,0.307,0.308,0.3082,0.3084,0.3097,0.3099,0.3092,0.3096,0.3103,0.3089,0.3101,0.31,0.3087,0.3083,0.308,0.3079,0.312,0,0,0,0,0,0.3041,0.304,0.3053,0.3044,0.3046,0.3058,0.3058,0.3067,0.3072,0.3074,0.308,0.3085,0.3085,0.3084,0.3085,0.3075,0.3077,0.3069,0.3066,0.3064,0.3062,0.3058,0.3055,0.3089,0.3089,0.3089,0,0,0.3028,0.3036,0.3034,0.3039,0.3044,0.3042,0.3059,0.3057,0.3056,0.3073,0.3069,0.3074,0.308,0.3072,0.3069,0.3075,0.3053,0.3062,0.306,0.306,0.3056,0.3053,0.305,0.3088,0.3088,0.3088,0,0,0.3003,0.3009,0.3003,0.3008,0.3015,0.3023,0.3022,0.3032,0.3036,0.3033,0.3046,0.3045,0.3045,0.3049,0.305,0.303,0.3039,0.303,0.3014,0.301,0.3007,0.3005,0.2998,0.2995,0.3028,0.3028,0.3028,0,0.2986,0.2984,0.2998,0.2995,0.2997,0.3014,0.3008,0.3012,0.3019,0.302,0.3027,0.3029,0.3034,0.3027,0.3023,0.3024,0.3022,0.3028,0.3007,0.3004,0.3002,0.2996,0.2993,0.3027,0.3027,0.3027,0.3027,0,0.2963,0.2962,0.2956,0.2963,0.2965,0.296,0.2973,0.2973,0.2982,0.299,0.2986,0.2993,0.2996,0.2996,0.3004,0.2991,0.2995,0.3004,0.3017,0.2998,0.2991,0.2989,0.3025,0.3025,0.3026,0.3026,0,0,0.2921,0.2938,0.2935,0.2939,0.295,0.2949,0.2946,0.295,0.2949,0.2954,0.2952,0.2952,0.2962,0.2964,0.2973,0.2969,0.2953,0.2979,0.298,0.2974,0.294,0.2932,0.2929,0.296,0.2959,0.2959,0.2939,0,0.2898,0.2893,0.2906,0.2899,0.2898,0.2916,0.2913,0.2919,0.2927,0.2927,0.2936,0.2936,0.2948,0.295,0.2947,0.2955,0.2946,0.2957,0.2957,0.2957,0.2955,0.2926,0.2917,0.2898,0.2937,0.2937,0.2936,0,0.287,0.2874,0.2867,0.2879,0.2879,0.2876,0.2882,0.2882,0.289,0.2896,0.29,0.2911,0.2909,0.2922,0.2919,0.2926,0.2928,0.2932,0.2932,0.2931,0.2945,0.2924,0.2892,0.2889,0.2933,0.2933,0.2933,0,0.284,0.2844,0.284,0.2844,0.2858,0.2856,0.2861,0.287,0.2872,0.2877,0.2878,0.2882,0.2884,0.2887,0.29,0.2908,0.2896,0.2909,0.29,0.29,0.2896,0.2896,0.2863,0.2898,0.2898,0.2898,0.2898,0,0.2812,0.2807,0.2827,0.2825,0.282,0.2836,0.283,0.2837,0.2845,0.2845,0.286,0.2859,0.2876,0.2877,0.2887,0.2883,0.2884,0.2889,0.2891,0.2887,0.2886,0.2887,0.2889,0.2897,0.2897,0.2898,0.2898,0,0.2777,0.2791,0.2788,0.2803,0.2806,0.2802,0.2814,0.2813,0.2822,0.2822,0.2822,0.2837,0.2839,0.2852,0.2857,0.2864,0.2857,0.2862,0.2854,0.2856,0.2846,0.2847,0.2812,0.2809,0.2846,0.2845,0.2845,0,0.2758,0.2755,0.2769,0.2771,0.2776,0.2778,0.278,0.2796,0.2798,0.2808,0.2805,0.2809,0.2813,0.2816,0.2827,0.2831,0.2836,0.2824,0.2837,0.2833,0.2836,0.2836,0.2836,0.2821,0.2821,0.282,0.282,0,0.2723,0.2731,0.2734,0.274,0.2743,0.2748,0.2755,0.2755,0.2773,0.2774,0.2777,0.278,0.2786,0.279,0.2797,0.2803,0.2814,0.2816,0.2814,0.2809,0.2805,0.2807,0.2846,0.2816,0.2817,0.2817,0.2817,0.2817,0.2695,0.2693,0.2704,0.2707,0.2714,0.272,0.272,0.273,0.2733,0.274,0.275,0.2751,0.2761,0.2771,0.2776,0.2778,0.2785,0.2782,0.2781,0.278,0.2778,0.2805,0.278,0.278,0.278,0.278,0.278,0,0.2661,0.2669,0.2672,0.2681,0.2684,0.2696,0.2705,0.2706,0.2708,0.2716,0.272,0.2724,0.2729,0.2741,0.2746,0.2745,0.2751,0.2746,0.2746,0.2747,0.2772,0.2773,0.2742,0.2742,0.2742,0.2742,0.2742,0.2742,0.2643,0.264,0.265,0.2651,0.2659,0.2662,0.2666,0.2672,0.2678,0.2683,0.2686,0.2695,0.2705,0.2712,0.2716,0.272,0.2721,0.2714,0.272,0.2742,0.2745,0.2749,0.275,0.2715,0.2715,0.2695,0.2695,0.2695]},{"header":{"parameterUnit":"m.s-1","parameterCategory":1,"la1":30.2991,"la2":30.254,"lo1":-89.0895,"lo2":-89.0444,"dy":0.0017,"dx":0.0017,"nx":28,"ny":28,"refTime":"2026-01-11T09:00:00:Z","depth":0,"parameterNumber":3,"parameterNumberName":"V-component_of_WINDS"},"data":[0,0,0,0,0,0,0,0,0,0,0,0,0,0,0,0,0,0,0,0,0,0,0,0,0,0,0,0,0,0,0,0,0,0,0,0,0,0,0,0,0,0,0,0,0,0,0,0,0,0,0,0,0,0,0,0,0,0,-7.5611,-7.5612,0,-7.5711,-7.5712,-7.5713,-7.5673,-7.5671,-7.5668,-7.5666,-7.5762,-7.5767,-7.5771,0,0,0,0,0,0,0,0,0,0,0,0,0,-7.5383,-7.5387,-7.5611,-7.5612,-7.5614,-7.571,-7.5712,-7.5713,-7.5674,-7.5671,-7.5668,-7.5665,-7.5761,-7.5766,-7.5772,0,0,0,0,0,0,0,0,0,0,0,0,0,-7.5482,-7.5389,-7.5611,-7.5606,-7.5606,-7.571,-7.5712,-7.5713,-7.5674,-7.5671,-7.5667,-7.5664,-7.5759,-7.5766,-7.5773,-7.5886,0,0,-7.5794,-7.5797,0,0,0,0,0,0,0,0,-7.5476,-7.549,-7.5605,-7.5606,-7.5607,-7.5676,-7.5666,-7.5771,-7.5675,-7.5648,-7.5666,-7.5662,-7.5736,-7.5745,-7.5771,-7.589,-7.5894,-7.5795,-7.5799,-7.5802,-7.5804,0,0,0,0,0,0,0,-7.547,-7.5486,-7.565,-7.5607,-7.5608,-7.5597,-7.5607,-7.5686,-7.571,-7.565,-7.5648,-7.566,-7.5736,-7.5764,-7.5773,-7.5896,-7.5795,-7.5801,-7.5805,-7.5808,-7.6115,-7.6119,0,0,0,0,0,0,-7.5463,-7.548,-7.5647,-7.5653,-7.5532,-7.5604,-7.5615,-7.5657,-7.5709,-7.5714,-7.5663,-7.5658,-7.5754,-7.5764,-7.5776,-7.5913,-7.5802,-7.5809,-7.5813,-7.6111,-7.6116,-7.612,0,0,0,0,0,0,-7.5459,-7.5479,-7.5643,-7.5566,-7.5586,-7.5612,-7.5659,-7.5661,-7.5689,-7.5719,-7.5723,-7.5688,-7.5751,-7.5766,-7.586,-7.5916,-7.5812,-7.5818,-7.6106,-7.6113,-7.6118,-7.6188,0,0,0,0,0,0,-7.5452,-7.5477,-7.5521,-7.5568,-7.5591,-7.5727,-7.5662,-7.5666,-7.5702,-7.5697,-7.5743,-7.5748,-7.575,-7.5849,-7.5867,-7.5924,-7.5824,-7.6101,-7.6109,-7.6116,-7.6181,-7.6195,-7.6208,0,0,0,0,0,-7.5444,-7.5535,-7.5524,-7.5544,-7.5647,-7.573,-7.5743,-7.5745,-7.5707,-7.5751,-7.5771,-7.5746,-7.5907,-7.5859,-7.5878,-7.5938,-7.6098,-7.6107,-7.6116,-7.6174,-7.6192,-7.6208,0,0,0,0,0,0,-7.5492,-7.5541,-7.5529,-7.5638,-7.5681,-7.5723,-7.5779,-7.5764,-7.5817,-7.5809,-7.5808,-7.5819,-7.5916,-7.5936,-7.5882,-7.6052,-7.5996,-7.601,-7.6035,-7.6052,-7.6066,-7.6058,-7.583,0,0,0,0,0,-7.5515,-7.5581,-7.5619,-7.5712,-7.5734,-7.5753,-7.5789,-7.5788,-7.5831,-7.5848,-7.5874,-7.5915,-7.5975,-7.6015,-7.6071,-7.6184,-7.6193,-7.6234,-7.6248,-7.6259,-7.627,-7.6332,-7.6351,-7.6149,-7.6149,-7.6149,0,0,-7.5564,-7.5599,-7.5639,-7.5722,-7.5755,-7.5822,-7.5768,-7.584,-7.5889,-7.5858,-7.5949,-7.597,-7.6016,-7.612,-7.6167,-7.614,-7.6329,-7.627,-7.6279,-7.6284,-7.6343,-7.6363,-7.638,-7.6155,-7.6154,-7.6153,0,0,-7.5686,-7.572,-7.5801,-7.5836,-7.5888,-7.59,-7.592,-7.5966,-7.5979,-7.6071,-7.605,-7.6107,-7.621,-7.6245,-7.6276,-7.6415,-7.6394,-7.6433,-7.6504,-7.6565,-7.6581,-7.6595,-7.6645,-7.6663,-7.6444,-7.6444,-7.6444,0,-7.574,-7.5841,-7.5844,-7.592,-7.5957,-7.5935,-7.6017,-7.605,-7.6116,-7.6142,-7.6112,-7.6243,-7.6272,-7.6384,-7.6419,-7.6444,-7.6466,-7.6427,-7.6579,-7.6593,-7.6606,-7.6654,-7.6673,-7.6449,-7.6448,-7.6448,-7.6447,0,-7.5904,-7.5975,-7.6034,-7.6103,-7.6147,-7.6225,-7.6239,-7.6283,-7.6278,-7.6294,-7.6388,-7.6423,-7.6487,-7.6514,-7.6508,-7.6626,-7.6608,-7.6578,-7.6523,-7.663,-7.6675,-7.6693,-7.6455,-7.6453,-7.6452,-7.6451,0,0,-7.6058,-7.613,-7.6151,-7.6183,-7.6239,-7.6293,-7.6371,-7.6436,-7.6474,-7.6521,-7.6586,-7.6675,-7.6649,-7.6684,-7.6683,-7.6736,-7.6845,-7.67,-7.6701,-7.6726,-7.6978,-7.7,-7.7022,-7.6832,-7.6836,-7.6839,-7.6974,0,-7.6186,-7.6324,-7.6331,-7.6456,-7.6522,-7.6503,-7.657,-7.6612,-7.6629,-7.6686,-7.6703,-7.6767,-7.6727,-7.6749,-7.6801,-7.6821,-7.6896,-7.6811,-7.6892,-7.6895,-7.6881,-7.7045,-7.7068,-7.7195,-7.6992,-7.6995,-7.6997,0,-7.6353,-7.6409,-7.6542,-7.6591,-7.6619,-7.668,-7.6741,-7.6796,-7.6843,-7.6852,-7.6893,-7.6884,-7.6963,-7.6906,-7.7014,-7.6956,-7.6989,-7.7004,-7.7009,-7.7017,-7.6952,-7.7057,-7.7235,-7.7254,-7.7025,-7.7022,-7.702,0,-7.6453,-7.6561,-7.6655,-7.6683,-7.6742,-7.6786,-7.6812,-7.6856,-7.6895,-7.6948,-7.6974,-7.7035,-7.7068,-7.7115,-7.7123,-7.708,-7.7232,-7.7175,-7.7241,-7.7241,-7.7273,-7.7271,-7.7459,-7.7294,-7.7294,-7.7294,-7.7293,0,-7.6596,-7.6678,-7.6702,-7.6759,-7.6851,-7.6857,-7.6947,-7.697,-7.701,-7.7071,-7.7057,-7.7115,-7.7122,-7.7181,-7.7187,-7.7276,-7.7291,-7.73,-7.73,-7.7301,-7.73,-7.7323,-7.7315,-7.7299,-7.7297,-7.7296,-7.7296,0,-7.6722,-7.6742,-7.6843,-7.6893,-7.6907,-7.6973,-7.7014,-7.7069,-7.7086,-7.7163,-7.7182,-7.7207,-7.7276,-7.7289,-7.7369,-7.7374,-7.7481,-7.7472,-7.7466,-7.7465,-7.7531,-7.7525,-7.774,-7.7769,-7.7585,-7.7587,-7.7588,0,-7.6812,-7.6875,-7.6933,-7.6975,-7.7004,-7.707,-7.7112,-7.7121,-7.7164,-7.7224,-7.7272,-7.734,-7.7395,-7.7506,-7.753,-7.7592,-7.7585,-7.7657,-7.7594,-7.7594,-7.7587,-7.7584,-7.759,-7.7669,-7.7671,-7.7672,-7.7673,0,-7.6969,-7.6977,-7.7038,-7.7104,-7.7155,-7.7206,-7.7255,-7.7289,-7.7304,-7.7354,-7.7426,-7.7469,-7.7553,-7.7621,-7.7684,-7.7709,-7.7694,-7.7693,-7.7712,-7.7713,-7.7708,-7.7713,-7.7499,-7.7688,-7.7687,-7.7686,-7.7685,-7.7684,-7.7081,-7.7137,-7.7188,-7.7257,-7.7295,-7.7342,-7.7397,-7.7422,-7.7483,-7.7554,-7.7555,-7.7634,-7.768,-7.7763,-7.7793,-7.7854,-7.7831,-7.7857,-7.7864,-7.7871,-7.7878,-7.7698,-7.7865,-7.7864,-7.7864,-7.7864,-7.7863,0,-7.7238,-7.7271,-7.7335,-7.7405,-7.746,-7.7444,-7.7498,-7.7544,-7.7615,-7.766,-7.7716,-7.7799,-7.7866,-7.7897,-7.7962,-7.8005,-7.8,-7.8022,-7.8018,-7.8025,-7.7894,-7.7872,-7.8025,-7.8025,-7.8025,-7.8025,-7.8025,-7.8025,-7.7327,-7.7422,-7.7436,-7.755,-7.758,-7.766,-7.7692,-7.7735,-7.7772,-7.7867,-7.7923,-7.7943,-7.7983,-7.8052,-7.8112,-7.8119,-7.8144,-7.8169,-7.8173,-7.805,-7.8034,-7.8018,-7.7997,-7.8174,-7.8175,-7.8299,-7.83,-7.8301]}]]